SCP
0 0 0 -0 0 -0 -0 0 0 0 -0 0 0 0 0 0 0 0 0 0 0 0 0 0 0 0 1 1 1 1 2 2
0 0 0 0 0 0 0 0 0 0 0 0 0 0 0 0 0 0 0 -0 -0 -0 0 0 0 0 1 0 0 1 3 2
0 0 0 0 0 0 0 0 0 0 0 -0 -0 -0 0 0 0 0 0 0 0 0 0 0 0 0 0 0 2 3 4 7
0 0 0 0 0 0 0 0 0 0 0 0 0 0 0 0 0 0 0 0 0 0 0 0 0 0 1 2 3 3 1 3
0 0 0 0 0 0 0 0 0 0 0 0 0 0 0 0 0 0 0 0 0 0 1 1 2 1 1 2 2 0 -0 -0
0 0 0 0 0 0 0 0 0 0 0 0 0 0 0 0 0 0 0 0 1 1 1 1 1 0 0 0 0 0 0 0
0 0 0 0 0 0 0 0 0 0 0 0 0 0 0 0 0 0 0 0 1 1 1 0 0 1 0 0 0 0 0 0
0 0 0 0 0 0 0 0 0 0 0 0 0 0 0 0 0 0 0 0 0 0 0 0 0 0 0 0 0 0 0 0
0 0 0 0 0 0 0 0 0 0 0 0 0 0 0 0 0 0 0 0 0 0 0 0 0 0 0 0 0 0 0 0
0 0 0 0 0 0 0 0 0 0 0 0 0 0 0 0 0 0 0 0 0 0 0 0 -0 -0 -0 -0 0 0 1 1
0 0 0 0 0 0 0 0 0 0 0 0 0 0 0 0 0 0 0 0 0 0 0 -0 -0 -0 -0 0 0 0 0 0
0 0 0 0 0 0 0 0 0 0 0 0 0 0 0 0 0 0 0 0 0 0 0 0 0 0 0 0 0 0 0 0
0 0 0 0 0 0 0 0 0 0 0 0 0 0 0 0 0 0 0 0 0 0 0 0 0 0 0 0 0 0 0 0
0 0 0 0 0 0 0 0 0 0 0 0 0 0 0 0 0 0 0 0 0 0 0 0 0 0 0 0 0 0 0 0
0 0 0 0 0 0 0 0 0 0 0 0 0 0 0 0 0 0 0 0 0 0 0 0 0 0 0 0 0 0 0 0
0 0 0 0 0 0 0 0 0 0 0 0 0 0 0 0 0 0 0 0 0 0 0 0 0 0 0 0 0 0 0 0
0 0 0 0 0 0 0 0 0 0 0 0 0 0 0 0 0 0 0 0 0 0 0 0 0 0 0 0 0 0 0 0
0 0 0 0 0 0 0 0 0 0 0 0 0 0 0 0 0 0 0 0 0 0 0 0 0 0 0 0 0 0 0 0
0 0 0 0 0 0 0 0 0 0 0 0 0 0 0 0 0 0 0 0 0 0 0 0 0 0 0 0 0 0 0 0
Wind_Speed_500mb
12 8 14 6 7 8 14 4 6 5 13 12 12 17 20 15 7 29 36 39 59 66 76 83 84 87 88 88 88 92 98 100
13 7 1 7 11 3 7 7 4 8 7 7 18 12 14 20 20 12 12 19 29 32 43 52 59 65 73 85 95 96 98 94
4 5 3 8 4 13 11 8 10 4 10 8 18 12 16 13 19 15 15 10 6 10 14 22 25 32 38 58 72 76 69 65
16 14 4 5 3 7 10 5 5 8 8 12 15 9 33 36 47 39 31 25 19 12 5 1 10 17 29 37 46 56 37 25
12 12 9 7 5 11 11 7 3 10 9 5 17 14 30 38 33 30 26 26 23 21 20 19 22 27 38 40 34 19 27 16
9 10 5 7 11 6 11 8 8 9 11 5 5 11 20 26 26 26 29 27 29 30 30 29 23 23 28 30 23 31 41 40
14 14 6 3 2 3 5 10 11 15 16 10 7 9 14 21 29 36 36 39 39 38 34 36 33 30 27 29 35 39 38 37
6 9 6 13 16 14 12 12 13 16 7 7 11 17 22 29 35 35 34 32 31 30 29 32 33 33 33 34 35 37 38 38
9 9 7 12 12 7 10 11 12 12 9 10 5 20 23 28 29 29 26 27 22 21 23 25 27 31 35 41 47 48 48 48
5 7 7 12 2 25 21 12 12 14 9 12 15 19 20 24 29 26 23 15 12 15 22 24 30 30 33 38 47 42 41 42
8 5 4 5 12 10 11 7 4 10 7 11 11 22 18 21 17 14 10 7 10 21 28 31 39 40 44 51 54 49 50 45
5 8 10 12 4 7 10 3 19 13 9 8 6 4 7 18 13 7 4 11 21 30 37 42 43 40 35 45 45 47 51 54
4 5 12 9 16 17 5 8 27 18 16 12 7 8 13 9 2 7 13 21 30 30 35 33 37 38 42 56 58 63 56 56
6 5 11 8 2 8 13 26 26 21 18 24 20 14 6 2 8 11 18 23 23 28 28 32 41 50 60 67 64 59 59 47
10 9 7 9 26 38 31 28 20 25 20 16 13 14 12 7 5 13 18 16 25 33 39 45 51 54 57 58 60 53 51 53
7 5 3 26 27 24 19 25 24 18 11 9 10 13 10 8 10 16 24 31 39 46 50 52 53 53 51 52 51 49 50 51
3 4 9 12 16 15 14 15 11 7 9 10 9 9 5 7 13 22 32 40 44 48 52 52 49 45 47 50 46 55 51 51
10 25 11 14 14 11 13 12 8 6 12 15 10 9 8 14 17 25 33 41 44 46 48 45 45 46 46 51 51 51 51 47
18 32 36 33 25 19 21 24 20 15 12 10 8 11 12 10 15 26 32 39 44 48 43 39 41 45 49 49 50 47 43 45
Wind_Direction_500mb
228 229 147 186 185 174 108 40 85 240 302 321 34 45 55 24 52 214 216 235 243 250 253 250 250 252 253 255 261 263 264 262
292 322 232 182 153 77 23 131 196 316 299 268 356 338 37 25 37 96 164 207 234 250 255 259 264 270 269 262 263 265 267 271
323 50 208 348 70 59 110 108 146 126 286 274 273 199 111 56 55 53 51 45 334 298 289 287 292 295 290 276 278 281 278 263
253 276 232 209 156 106 114 229 80 128 289 350 355 355 99 83 84 95 100 101 91 76 60 313 306 304 295 292 300 316 313 297
344 356 8 64 70 100 108 92 175 122 239 38 17 59 90 94 88 85 85 71 57 43 23 2 339 312 300 309 320 312 341 346
196 220 215 27 353 98 113 101 175 194 160 227 323 108 80 81 84 89 75 58 46 34 27 9 353 336 335 334 315 308 323 319
229 241 180 107 291 272 146 157 154 186 148 195 190 123 88 77 88 86 78 63 61 60 55 53 45 33 16 3 352 344 343 340
291 317 83 62 17 75 50 94 58 105 119 144 126 124 83 80 87 80 79 79 75 68 54 40 30 19 7 356 346 337 332 328
236 338 69 13 329 352 61 41 125 152 200 125 116 64 59 97 95 95 102 98 77 61 44 26 7 352 342 339 339 332 327 324
170 21 68 237 58 95 87 51 51 85 87 145 138 74 111 124 125 115 113 109 81 40 19 8 2 357 0 1 350 332 328 324
116 75 322 273 245 180 140 217 225 122 131 132 130 108 93 137 133 129 121 80 18 4 4 2 358 358 349 350 344 336 329 318
103 114 188 228 146 203 128 224 187 163 171 151 128 62 249 166 154 143 19 358 359 358 356 352 346 344 336 329 324 321 318 316
101 174 285 254 247 172 212 245 152 167 149 140 145 188 141 164 224 332 341 349 347 346 345 337 324 321 321 323 320 319 315 312
100 87 279 22 357 187 153 127 134 126 122 113 101 102 102 15 329 339 345 330 325 324 326 323 320 317 315 319 322 321 315 310
163 211 293 17 118 120 127 122 123 132 131 116 82 47 54 36 316 321 328 348 348 348 341 335 330 327 327 326 321 319 316 316
87 284 125 113 114 114 116 118 123 120 104 36 65 71 56 57 45 11 2 352 344 340 338 335 332 331 325 328 327 332 329 328
40 292 136 132 131 121 123 129 121 107 90 72 63 92 59 45 8 357 348 344 341 337 334 336 337 336 337 339 332 327 333 329
202 186 156 157 148 159 154 131 125 141 102 93 80 79 37 353 349 344 342 338 334 332 333 337 337 337 339 338 341 337 335 336
145 142 121 118 124 135 131 121 118 113 81 61 34 10 354 343 342 337 339 341 337 333 333 334 337 339 342 347 350 350 348 339
Wind_Speed_850mb
12 8 14 6 7 8 14 4 6 5 13 12 12 17 20 15 7 29 36 39 59 66 76 83 84 87 88 88 88 92 98 100
13 7 1 7 11 3 7 7 4 8 7 7 18 12 14 20 20 12 12 19 29 32 43 52 59 65 73 85 95 96 98 94
4 5 3 8 4 13 11 8 10 4 10 8 18 12 16 13 19 15 15 10 6 10 14 22 25 32 38 58 72 76 69 65
16 14 4 5 3 7 10 5 5 8 8 12 15 9 33 36 47 39 31 25 19 12 5 1 10 17 29 37 46 56 37 25
12 12 9 7 5 11 11 7 3 10 9 5 17 14 30 38 33 30 26 26 23 21 20 19 22 27 38 40 34 19 27 16
9 10 5 7 11 6 11 8 8 9 11 5 5 11 20 26 26 26 29 27 29 30 30 29 23 23 28 30 23 31 41 40
14 14 6 3 2 3 5 10 11 15 16 10 7 9 14 21 29 36 36 39 39 38 34 36 33 30 27 29 35 39 38 37
6 9 6 13 16 14 12 12 13 16 7 7 11 17 22 29 35 35 34 32 31 30 29 32 33 33 33 34 35 37 38 38
9 9 7 12 12 7 10 11 12 12 9 10 5 20 23 28 29 29 26 27 22 21 23 25 27 31 35 41 47 48 48 48
5 7 7 12 2 25 21 12 12 14 9 12 15 19 20 24 29 26 23 15 12 15 22 24 30 30 33 38 47 42 41 42
8 5 4 5 12 10 11 7 4 10 7 11 11 22 18 21 17 14 10 7 10 21 28 31 39 40 44 51 54 49 50 45
5 8 10 12 4 7 10 3 19 13 9 8 6 4 7 18 13 7 4 11 21 30 37 42 43 40 35 45 45 47 51 54
4 5 12 9 16 17 5 8 27 18 16 12 7 8 13 9 2 7 13 21 30 30 35 33 37 38 42 56 58 63 56 56
6 5 11 8 2 8 13 26 26 21 18 24 20 14 6 2 8 11 18 23 23 28 28 32 41 50 60 67 64 59 59 47
10 9 7 9 26 38 31 28 20 25 20 16 13 14 12 7 5 13 18 16 25 33 39 45 51 54 57 58 60 53 51 53
7 5 3 26 27 24 19 25 24 18 11 9 10 13 10 8 10 16 24 31 39 46 50 52 53 53 51 52 51 49 50 51
3 4 9 12 16 15 14 15 11 7 9 10 9 9 5 7 13 22 32 40 44 48 52 52 49 45 47 50 46 55 51 51
10 25 11 14 14 11 13 12 8 6 12 15 10 9 8 14 17 25 33 41 44 46 48 45 45 46 46 51 51 51 51 47
18 32 36 33 25 19 21 24 20 15 12 10 8 11 12 10 15 26 32 39 44 48 43 39 41 45 49 49 50 47 43 45
Wind_Direction_850mb
228 229 147 186 185 174 108 40 85 240 302 321 34 45 55 24 52 214 216 235 243 250 253 250 250 252 253 255 261 263 264 262
292 322 232 182 153 77 23 131 196 316 299 268 356 338 37 25 37 96 164 207 234 250 255 259 264 270 269 262 263 265 267 271
323 50 208 348 70 59 110 108 146 126 286 274 273 199 111 56 55 53 51 45 334 298 289 287 292 295 290 276 278 281 278 263
253 276 232 209 156 106 114 229 80 128 289 350 355 355 99 83 84 95 100 101 91 76 60 313 306 304 295 292 300 316 313 297
344 356 8 64 70 100 108 92 175 122 239 38 17 59 90 94 88 85 85 71 57 43 23 2 339 312 300 309 320 312 341 346
196 220 215 27 353 98 113 101 175 194 160 227 323 108 80 81 84 89 75 58 46 34 27 9 353 336 335 334 315 308 323 319
229 241 180 107 291 272 146 157 154 186 148 195 190 123 88 77 88 86 78 63 61 60 55 53 45 33 16 3 352 344 343 340
291 317 83 62 17 75 50 94 58 105 119 144 126 124 83 80 87 80 79 79 75 68 54 40 30 19 7 356 346 337 332 328
236 338 69 13 329 352 61 41 125 152 200 125 116 64 59 97 95 95 102 98 77 61 44 26 7 352 342 339 339 332 327 324
170 21 68 237 58 95 87 51 51 85 87 145 138 74 111 124 125 115 113 109 81 40 19 8 2 357 0 1 350 332 328 324
116 75 322 273 245 180 140 217 225 122 131 132 130 108 93 137 133 129 121 80 18 4 4 2 358 358 349 350 344 336 329 318
103 114 188 228 146 203 128 224 187 163 171 151 128 62 249 166 154 143 19 358 359 358 356 352 346 344 336 329 324 321 318 316
101 174 285 254 247 172 212 245 152 167 149 140 145 188 141 164 224 332 341 349 347 346 345 337 324 321 321 323 320 319 315 312
100 87 279 22 357 187 153 127 134 126 122 113 101 102 102 15 329 339 345 330 325 324 326 323 320 317 315 319 322 321 315 310
163 211 293 17 118 120 127 122 123 132 131 116 82 47 54 36 316 321 328 348 348 348 341 335 330 327 327 326 321 319 316 316
87 284 125 113 114 114 116 118 123 120 104 36 65 71 56 57 45 11 2 352 344 340 338 335 332 331 325 328 327 332 329 328
40 292 136 132 131 121 123 129 121 107 90 72 63 92 59 45 8 357 348 344 341 337 334 336 337 336 337 339 332 327 333 329
202 186 156 157 148 159 154 131 125 141 102 93 80 79 37 353 349 344 342 338 334 332 333 337 337 337 339 338 341 337 335 336
145 142 121 118 124 135 131 121 118 113 81 61 34 10 354 343 342 337 339 341 337 333 333 334 337 339 342 347 350 350 348 339